Regional Weather Roundup
Issued by NWS Boston, MA

Home | Current Version | Previous Version | Text Only | Print | Product List | Glossary On
Versions: 1 2 3 4 5 6 7 8 9 10 11 12 13 14 15 16 17 18 19 20 21 22 23 24 25 26 27 28 29 30 31 32 33 34 35 36 37 38 39 40 41 42 43 44 45 46 47 48 49 50
000
ASUS41 KBOX 300110
RWRBOX

REGIONAL WEATHER ROUNDUP
NATIONAL WEATHER SERVICE TAUNTON MA
800 PM EST THU JAN 29 2015

NOTE:  "FAIR" INDICATES FEW OR NO CLOUDS BELOW 12,000 FEET WITH NO
SIGNIFICANT WEATHER AND/OR OBSTRUCTIONS TO VISIBILITY.  THE FOLLOWING
OBSERVATION LOCATIONS DO NOT REPORT PRESENT WEATHER...PROVINCETOWN...
SMITHFIELD...BLOCK ISLAND...KEENE...AND OXFORD.

MAZALL-300200-
EASTERN MASSACHUSETTS

CITY           SKY/WX    TMP DP  RH WIND       PRES   REMARKS
BOSTON         MOCLDY    28  21  75 S6        30.15F WCI  22
BEVERLY        MOCLDY    24  17  74 CALM      30.13F
LAWRENCE       MOCLDY    28  20  71 SE3       30.14F
BEDFORD        MOCLDY    27  20  75 S3        30.12F
BLUE HILL        N/A     25  16  68 S12       30.09F WCI  14
NORWOOD        MOCLDY    22  16  78 SE3       30.14F
MARSHFIELD     PTCLDY    23  21  93 CALM      30.16F
PLYMOUTH       PTCLDY    19  17  92 CALM      30.14F
TAUNTON        PTCLDY    22  17  81 CALM      30.15F
NEW BEDFORD    PTCLDY    23  19  85 CALM      30.15S
$$

MAZALL-300200-
CAPE COD AND THE ISLANDS

CITY           SKY/WX    TMP DP  RH WIND       PRES   REMARKS
FALMOUTH       CLOUDY    19  16  86 CALM      30.15F
HYANNIS        PTCLDY    21  19  92 CALM      30.14F
CHATHAM        PTCLDY    24  22  91 CALM      30.16F
PROVINCETOWN   CLEAR     19  18  93 S3        30.16S
NANTUCKET      PTCLDY    28  25  88 W6        30.16F WCI  22
MARTHAS VNYRD  PTCLDY    18  13  80 CALM      30.15F
$$

MAZALL-300200-
CENTRAL AND WESTERN MASSACHUSETTS

CITY           SKY/WX    TMP DP  RH WIND       PRES   REMARKS
WORCESTER      CLOUDY    26  12  55 S8        30.06F WCI  18
FITCHBURG      CLOUDY    30  15  53 SE6       30.11F WCI  24
ORANGE         CLOUDY    27   5  39 CALM      30.07F
SPRINGFIELD    CLOUDY    27  11  52 S6        30.09F WCI  20
WESTFIELD      CLOUDY    29  10  45 S5        30.08F WCI  24
NORTH ADAMS    CLOUDY    30   0  27 E22G31    30.01F WCI  17
PITTSFIELD     CLOUDY    27   4  37 VRB6G17   29.98F WCI  20
$$

RIZALL-300200-
RHODE ISLAND

CITY           SKY/WX    TMP DP  RH WIND       PRES   REMARKS
PROVIDENCE     CLOUDY    28  17  63 CALM      30.15F
NEWPORT        MOCLDY    30  23  75 S3        30.13F
BLOCK ISLAND   CLOUDY    34  23  64 S9        30.11F WCI  26
SMITHFIELD     MOCLDY    27  12  54 CALM      30.10F
WESTERLY       CLOUDY    33  25  72 S7        30.13F WCI  27
$$

CTZALL-300200-
CONNECTICUT

CITY           SKY/WX    TMP DP  RH WIND       PRES   REMARKS
BRADLEY INTL   CLOUDY    30  19  63 S9        30.09F WCI  22
HARTFORD       CLOUDY    29  21  72 S6        30.11F WCI  23
BRIDGEPORT     CLOUDY    31  25  78 SE7       30.11F WCI  24
DANBURY        CLOUDY    28  17  63 CALM      30.08F
GROTON         CLOUDY    32  27  81 S10       30.12F WCI  24
NEW HAVEN      CLOUDY    32  25  75 SE5       30.11F WCI  27
CHESTER        FAIR      30  27  86 SE3       30.10F
MERIDEN        CLOUDY    29  21  72 CALM      30.11F
WILLIMANTIC    CLOUDY    29  20  69 CALM      30.12F
OXFORD         CLOUDY    27  16  63 S6        30.08F WCI  20
$$

MEZ002-015-021-024-NHZ003-005-008-011-012-014-VTZ005-008-300200-
NORTHERN NEW ENGLAND

CITY           SKY/WX    TMP DP  RH WIND       PRES   REMARKS
PORTLAND ME    MOCLDY    21  13  71 CALM      30.14F
BANGOR ME      PTCLDY     3   0  87 CALM      30.15F
CONCORD NH     CLOUDY    28  15  58 E5        30.11F WCI  23
MANCHESTER NH  CLOUDY    28  21  75 SE7       30.10F WCI  21
NASHUA NH      MOCLDY    29  21  71 CALM      30.13F
PORTSMOUTH NH  CLOUDY    22  17  81 E3        30.12F
JAFFREY NH     CLOUDY    28  11  48 SE5       30.04F WCI  23
KEENE NH       CLOUDY    25  12  58 CALM      30.06F
BURLINGTON VT  CLOUDY    29   6  38 SE10      29.90F WCI  20
MT. WASHINGTON MOCLDY    12 -13  31 SW44        N/A  WCI -13
$$

NYZ052-076-300200-
EASTERN NEW YORK

CITY           SKY/WX    TMP DP  RH WIND       PRES   REMARKS
ALBANY         CLOUDY    29   8  41 S9        30.01F WCI  20
NEW YORK CITY  CLOUDY    35  27  72 S8        30.09F WCI  29
$$

ANZALL-300200-
MARINE OBSERVATIONS

STATION/POSITION TIME  TEMP    WIND        PRES    VSBY  WAVE
                       AIR SEA DIR/SP/G                  HT/PER
                 (UTC) (F)     (DEG/KT/KT) (MB)    (MI)  (FT/S)
BOSTON BUOY      0050   33 40  170/ 10/ 12 1020.7F         2/11
BUZZARDS BAY     0000          180/  4/  5 1021.8F
NANTUCKET SOUND  NOT AVBL
MASS BAY-STELLWA 0004   31 41  160/  8/ 10   N/A    1 7/8  2/11
ISLE OF SHOALS   0100   32     160/  9/ 10 1019.8F
S OF BLOCK IS    0008      42                N/A           2/11
$$

......................KEY.........................
  SKY/WX - SKY CONDITION/PRESENT WEATHER
  TMP    - TEMPERATURE IN FAHRENHEIT
  DWPT   - DEWPOINT IN FAHRENHEIT
  RH     - RELATIVE HUMIDITY IN PERCENT
  WIND   - DIRECTION AND SPEED IN MPH
  PRES   - MEAN SEA LEVEL PRESSURE IN INCHES OF HG
  WCI    - WIND CHILL INDEX
  VSB    - VISIBILITY IN MILES
  HX     - HEAT INDEX
  TC     - TEMPERATURE IN CELSIUS
  VRB    - VARIABLE WIND DIRECTION
  N/A    - NOT AVAILABLE



USA.gov is the U.S. government's official web portal to all federal, state and local government web resources and services.